Location: Le Mas-d�Auvignon
(43.8908°N, 0.5036°E)
Time: 19:50:26
(UTC+00:00)

Daily predictions for brighter satellites

Satellite Brightness Start Highest point End
(mag) Time Altitude Azimuth Time Altitude Azimuth Time Altitude Azimuth
BREEZE-M DEB (TANK) 2.4 17:56:22 10° WNW 17:58:56 75° NNE 18:05:19 10° ESE
Cosmos 1844 Rocket 3.1 17:56:23 10° SSW 18:01:56 71° WNW 18:07:33 10° NNE
Cosmos 2151 Rocket 3.7 17:59:46 10° S 18:04:11 60° E 18:08:39 10° NNE
CZ-2C R/B 3.8 17:59:43 10° SE 18:04:45 37° ENE 18:10:00 10° N
H-2A R/B 3.0 18:02:27 10° ESE 18:06:42 27° ENE 18:11:03 10° N
Cosmos 1689 Rocket 2.2 18:04:07 10° N 18:07:06 80° W 18:10:01 10° SSW
Meteor 1-12 Rocket 4.5 18:06:43 10° SSW 18:12:33 83° WNW 18:18:19 10° N
Cosmos 2285 Rocket 4.0 18:06:43 10° S 18:13:00 72° ESE 18:19:21 10° NNE
KORONAS-FOTON 4.2 18:10:48 10° N 18:14:33 42° ENE 18:18:16 10° SSE
Cosmos 1300 Rocket 3.9 18:11:11 10° SSW 18:15:36 75° W 18:20:03 10° N
Cosmos 1025 Rocket 3.2 18:12:59 10° N 18:17:24 82° W 18:21:48 10° S
ISS -2.0 18:15:20 10° NW 18:18:06 22° N 18:20:49 10° ENE
Okean O Rocket 4.5 18:15:37 10° SSW 18:19:11 23° W 18:22:46 10° NW
Cosmos 1805 3.6 18:15:58 10° SSE 18:19:37 40° E 18:23:20 10° NNE
TSX-5 4.0 18:16:06 10° SSW 18:20:02 82° ESE 18:25:10 10° NNE
Cosmos 2278 Rocket 2.8 18:17:02 10° SSE 18:22:04 34° ESE 18:27:07 10° NE
Cosmos 1707 4.3 18:21:22 10° NNW 18:24:57 39° W 18:28:32 10° SSW
Cosmos 1125 Rocket 4.2 18:23:07 10° SSW 18:28:22 61° WNW 18:33:39 10° NNE
CSL-04 Rocket 3.9 18:25:01 10° SE 18:30:18 51° ENE 18:35:40 10° N
HJ-1C 4.1 18:27:24 10° SE 18:30:22 31° ENE 18:33:21 10° N
Okean 1 Rocket 3.2 18:26:23 10° S 18:30:44 52° E 18:35:06 10° NNE
Cosmos 1833 Rocket 3.2 18:25:56 10° NNW 18:31:14 40° ENE 18:36:31 10° SE
Nadezhda 4 Rocket 3.9 18:26:29 10° N 18:32:38 82° E 18:38:48 10° S
Cosmos 1340 Rocket 3.4 18:32:13 10° SSE 18:35:48 33° E 18:39:25 10° NNE
CSL-04 Debris 4.2 18:30:47 10° SSE 18:36:04 60° ENE 18:41:23 10° N
COSMOS 2406 3.3 18:32:07 10° NNW 18:37:44 58° ENE 18:43:19 10° SE
YAOGAN 1 2.5 18:36:27 10° SSE 18:40:47 89° ENE 18:45:08 10° NNW
Lacrosse 4 Rocket 2.2 18:39:24 10° NNW 18:43:05 31° NE 18:45:15 19° ESE
Lacrosse 5 rocket 2.8 18:40:39 10° NNW 18:44:26 27° NNE 18:46:58 17° ENE
Cosmos 1674 2.8 18:41:02 10° NNW 18:44:53 77° W 18:48:40 10° S
CZ-4C R/B 2.6 18:42:54 10° S 18:47:12 33° ESE 18:52:09 10° NE
Exosat Rocket 4.0 18:44:28 10° SSW 18:49:40 65° WNW 18:54:42 10° NNE
CZ-4 R/B 2.3 18:49:48 10° S 18:53:53 53° W 18:57:56 10° NNW
Shenzhou-11 Module 1.6 18:52:28 10° W 18:54:22 41° SSW 18:54:24 41° S
OE (NEXTSAT) 4.4 18:54:04 10° W 18:57:32 70° N 18:59:13 28° ENE
ARGOS 3.2 18:52:45 10° SSE 18:57:59 58° ENE 19:03:18 10° N
Cosmos 1892 Rocket 4.0 18:55:09 10° N 18:59:16 39° ENE 19:01:33 22° SE
APEX 3.4 18:58:34 10° S 19:01:33 37° ESE 19:03:27 21° NE
Meteor 1-24 Rocket 3.7 18:56:20 10° N 19:02:03 69° ENE 19:07:55 10° SSE
MOS 1 Rocket 2.9 18:58:57 10° NNE 19:03:15 71° ESE 19:07:31 10° S
CZ-2C R/B 3.2 18:58:10 10° NNE 19:03:18 36° E 19:08:25 10° SSE
USA 186 2.7 19:04:00 31° ENE 19:04:00 31° ENE 19:06:41 10° N
Cosmos 1626 1.9 19:01:24 10° N 19:05:07 75° E 19:08:28 12° SSE
Meteor 1-22 Rocket 4.3 19:00:01 10° S 19:05:57 74° E 19:12:04 10° NNE
Aureole 2 Rocket 3.2 19:04:11 10° SW 19:07:24 50° WNW 19:10:35 10° N
CENTAUR R/B 4.3 19:00:16 10° NW 19:08:00 44° WSW 19:16:12 10° S
Cosmos 1470 3.2 19:08:02 36° ESE 19:08:18 36° E 19:11:52 10° NNE
Ariane Rocket 3.4 19:06:14 25° ESE 19:08:44 42° ENE 19:13:30 10° N
Resurs 01 Rocket 3.7 19:10:02 12° NE 19:10:02 12° NE 19:11:03 10° NNE
Cosmos 1766 3.8 19:06:46 10° SSW 19:10:39 60° W 19:14:35 10° N
SL-14 R/B 3.2 19:07:12 10° N 19:11:12 76° E 19:14:31 15° SSE
NOSS 3-4 (A) 4.4 19:08:00 10° WSW 19:13:42 47° NW 19:19:49 10° NNE
NOSS 3-4 (C) 4.3 19:08:05 10° WSW 19:13:48 48° NW 19:19:56 10° NNE
SL-8 R/B 3.7 19:10:19 10° SW 19:15:04 65° SSE 19:17:03 34° E
Cosmos 1733 3.9 19:12:23 10° SSW 19:16:09 56° W 19:19:54 10° N
MetOp-A 4.5 19:16:54 31° ESE 19:18:49 43° ENE 19:23:52 10° N
Cosmos 2098 Rocket 4.2 19:13:34 10° N 19:18:51 33° ENE 19:19:21 32° E
Milstar 3 Cent rocket 4.1 19:15:32 10° WSW 19:22:24 23° SSW 19:25:28 16° SSE
RESURS DK-1 2.3 19:18:22 10° SSW 19:22:31 83° WNW 19:26:42 10° NNE
Meteor 2-5 Rocket 4.3 19:18:31 10° NNW 19:24:11 62° W 19:29:57 10° S
Cosmos 1634 Rocket 4.0 19:19:00 10° S 19:25:11 84° W 19:31:27 10° N
SL-08 RB Rocket 3.5 19:22:59 27° SSE 19:25:24 74° ENE 19:29:55 10° N
ATLAS 3B R/B 2.8 19:19:52 10° NW 19:26:47 81° WSW 19:31:52 21° SSE
Cosmos 2026 Rocket 4.3 19:29:40 10° NNW 19:36:02 71° W 19:42:20 10° S
ATLAS 2AS CENTAUR R/B 3.9 19:28:36 10° WSW 19:36:14 48° NW 19:43:49 10° NNE
Meteor 2-10 4.2 19:35:05 42° SE 19:36:20 50° E 19:41:27 10° NNE
Cosmos 1461 3.9 19:32:13 10° NNW 19:36:41 38° NE 19:36:42 38° NE
Cosmos 2082 Rocket 2.1 19:31:58 10° NNW 19:37:37 75° ENE 19:39:28 43° SE
H-2A R/B 3.3 19:41:11 10° SSW 19:45:54 40° W 19:50:48 10° NNW
COSMOS 2455 2.8 19:40:15 10° SSW 19:46:16 89° WNW 19:52:22 10° NNE
Cosmos 1455 Rocket 3.0 19:42:27 10° S 19:46:50 81° W 19:51:12 10° N
SJ-6B 3.2 19:50:50 56° NNW 19:50:50 56° NNW 19:53:58 10° NNW
IRS-1A Rocket 4.3 19:48:51 30° SSE 19:51:57 84° WSW 19:57:46 10° NNW
OBJECT-B 3.5 19:55:54 13° N 19:55:54 13° N 19:56:20 10° N
Cosmos 2279 Rocket 4.0 19:47:37 10° S 19:53:53 82° W 20:00:12 10° N
ISS -2.1 19:52:05 10° NW 19:54:07 32° NW 19:54:07 32° NW
Meteor 1-21 Rocket 4.3 19:52:19 10° N 19:58:09 62° ENE 19:58:18 62° E
DMSP B5D2-2 4.0 19:55:13 10° NNE 20:00:32 88° WNW 20:05:16 13° SSW
Meteor 2-19 Rocket 4.4 19:54:44 10° N 20:00:51 85° W 20:03:16 39° S
Cosmos 1655 Rocket 3.9 19:56:28 10° N 20:02:48 79° E 20:04:14 56° SSE
Cosmos 2180 Rocket 4.5 19:59:02 10° S 20:05:20 85° W 20:11:46 10° N
Cosmos 2278 Rocket 3.6 20:00:50 10° SW 20:06:04 38° WNW 20:11:20 10° NNE
Gbstr 26 Del rocket 4.5 20:02:12 10° WSW 20:09:04 70° NNW 20:13:01 32° NE
Cosmos 909 Rocket 4.0 20:03:28 10° NW 20:09:51 83° WSW 20:10:58 62° SSE
Cosmos 1833 Rocket 4.2 20:10:05 10° NW 20:15:02 32° WSW 20:18:21 18° SSW
Cosmos 2251 Rocket 4.0 20:10:04 10° NNW 20:15:17 56° WSW 20:16:09 49° SW
Lacrosse 4 Rocket 3.2 20:18:14 10° NW 20:21:36 26° WSW 20:21:36 26° WSW
Lacrosse 5 rocket 2.6 20:19:30 10° NW 20:22:36 43° WNW 20:22:36 43° WNW
CZ-4C R/B 3.2 20:30:42 10° WSW 20:35:29 41° NW 20:41:12 10° NNE
SPOT 3 Rocket 4.3 20:38:02 49° NW 20:38:02 49° NW 20:41:54 10° NNW
Cosmos 2266 Rocket 4.1 20:35:13 10° NNW 20:40:53 68° WNW 20:40:53 68° WNW
CZ-2C R/B 4.2 20:38:29 10° N 20:43:31 35° WNW 20:48:33 10° SW
Resurs 01 Rocket 3.8 20:47:36 23° NNW 20:47:36 23° NNW 20:49:16 10° NNW
Cosmos 2082 Rocket 4.5 21:17:39 10° WNW 21:21:00 16° W 21:21:21 16° WSW
